BINAR-2 (60956 NORAD) Tracking and Keplerian Element Data

This shows tracking and keplerian element data for the satellite.

Feedback or suggestion? Click here.




ElementValue
Catalog60956
NameBINAR-2
Epoch Orbit692
Epoch Day286.85635495
Epoch Year2024
RAAN89.9571
Inclination51.6234
Eccentricity3.37E-05
Argument of Perigee12.4855
Mean Anonmoly347.6149
Mean Motion15.67803464
Decay Rate0.00338149
L11 60956U 98067WW 24286.85635495 .00338149 00000+0 28971-2 0 9999
L22 60956 51.6234 89.9571 0000337 12.4855 347.6149 15.67803464 6921



Live tracking and technical data element details for BINAR-2 (NORAD 60956). BINAR-2 can be tracked NOW for your location showing map with azimuth and elevation plus other details from your city location.







IsCatalogInMostPopularTable: catalog: 60956, numindb: 9
Update: records affected: 1



GetName: 60956 BINAR-2

Hit Count: updated at: Wed, 04 Dec 2024 18:03:22 GMT